Location: Blandford
(50.8667°N, 2.1667°W)
Time: 22:31:33
(UTC+00:00)

In-Cosmos 22 Rocket - Pass Details

Date: 09 April 2020
Orbit: 790 x 888 km, 81.2° (Epoch: 02 June)

Event Time Altitude Azimuth Distance (km) Brightness Sun altitude
Rises 20:20:00 0° 348° (NNW) 3,507 8.1 -13.2°
Reaches altitude 10° 20:22:30 10° 352° (N) 2,566 7.3 -13.5°
Maximum altitude 20:28:19 65° 74° (ENE) 976 4.3 -14.3°
Enters shadow 20:32:50 17° 154° (SSE) 2,076 5.7 -14.9°
